Hourly Data Report for August 06, 2004

All times are specified in Local Standard Time (LST). Add 1 hour to adjust for Daylight Saving Time where and when it is observed.

TORONTO CITY
ONTARIO

43°40'00.000" N
79°24'00.000" W
112.50 m
6158355
71508
XTO

Download Data

Hourly Data (August 2004)
Hourly Data Report for August 6, 2004
TIME Temp Definition
°C
Dew Point Definition
°C
Rel Hum Definition
%
Wind Dir Definition
10's deg

Wind Spd Definition
km/h
Visibility Definition
km
Stn Press Definition
kPa
Hmdx Definition


Wind Chill Definition


Weather Definition


00:00 15.0 9.3 69 LegendMM LegendMM LegendMM 100.24     LegendNANA
01:00 14.0 9.2 73 LegendMM LegendMM LegendMM 100.20     LegendNANA
02:00 13.2 9.3 77 LegendMM LegendMM LegendMM 100.16     LegendNANA
03:00 12.3 9.7 84 LegendMM LegendMM LegendMM 100.16     LegendNANA
04:00 13.5 9.8 78 LegendMM LegendMM LegendMM 100.17     LegendNANA
05:00 14.3 9.4 72 LegendMM LegendMM LegendMM 100.19     LegendNANA
06:00 15.1 9.1 67 LegendMM LegendMM LegendMM 100.21     LegendNANA
07:00 14.9 9.5 70 LegendMM LegendMM LegendMM 100.24     LegendNANA
08:00 17.5 9.7 60 LegendMM LegendMM LegendMM 100.24     LegendNANA
09:00 18.0 9.5 58 LegendMM LegendMM LegendMM 100.22     LegendNANA
10:00 19.5 9.4 52 LegendMM LegendMM LegendMM 100.20     LegendNANA
11:00 19.1 8.5 50 LegendMM LegendMM LegendMM 100.20     LegendNANA
12:00 19.1 9.0 52 LegendMM LegendMM LegendMM 100.16     LegendNANA
13:00 19.2 8.3 49 LegendMM LegendMM LegendMM 100.14     LegendNANA
14:00 19.3 9.4 53 LegendMM LegendMM LegendMM 100.12     LegendNANA
15:00 19.9 10.5 55 LegendMM LegendMM LegendMM 100.10     LegendNANA
16:00 19.6 9.4 52 LegendMM LegendMM LegendMM 100.10     LegendNANA
17:00 19.3 9.1 52 LegendMM LegendMM LegendMM 100.11     LegendNANA
18:00 18.7 9.2 54 LegendMM LegendMM LegendMM 100.14     LegendNANA
19:00 18.4 8.7 53 LegendMM LegendMM LegendMM 100.18     LegendNANA
20:00 18.0 9.3 57 LegendMM LegendMM LegendMM 100.21     LegendNANA
21:00 17.1 9.5 61 LegendMM LegendMM LegendMM 100.23     LegendNANA
22:00 16.6 9.2 62 LegendMM LegendMM LegendMM 100.27     LegendNANA
23:00 15.9 9.6 66 LegendMM LegendMM LegendMM 100.25     LegendNANA

Notes on Data Quality.

Legend

  • E = Estimated
  • M = Missing
  • NA = Not Available
Date modified: